Weather History for Bentonville, AR

Change the Weather History Date:

Tuesday, January 14, 2014

  Actual Average Record
Temperature  
Mean Temperature 39 °F -  
Max Temperature 48 °F 42 °F 69 °F (1952)
Min Temperature 30 °F 19 °F -6 °F (1979)
Degree Days  
Heating Degree Days 26    
Moisture  
Dew Point 21 °F    
Average Humidity 48    
Maximum Humidity 61    
Minimum Humidity 34    
Precipitation  
Precipitation 0.00 in - - ()
Sea Level Pressure  
Sea Level Pressure 30.03 in    
Wind  
Wind Speed 7 mph (WNW)    
Max Wind Speed 17 mph    
Max Gust Speed 24 mph    
Visibility 10 miles    
Events      
Averages and records for this station are not official NWS values.
T = Trace of Precipitation, MM = Missing Value Source: NWS Daily Summary

Daily Weather History Graph

Daily Weather History Graph

Search for Another Location

Airport:

Trip Planner

Search our weather history database for the weather conditions in past years. The results will help you decide how hot, cold, wet, or windy it might be!

Date:

Astronomy

Jan. 14, 2014 Rise Set
Actual Time 7:27 AM CST 5:24 PM CST
Civil Twilight 6:59 AM CST 5:52 PM CST
Nautical Twilight 6:28 AM CST 6:24 PM CST
Astronomical Twilight 5:57 AM CST 6:55 PM CST
Moon 4:29 PM CST (1/14) 6:03 AM CST (1/14)
Length of Visible Light 10h 52m
Length of Day
9h 56m
Waxing Gibbous, 98% of the Moon is Illuminated
Jan 14
Waxing Gibbous
Jan 15
Full
Jan 23
Last Quarter
Jan 30
New
Feb 6
First Quarter

Hourly Weather History & Observations

Time (CST) Temp. Windchill Dew Point Humidity Pressure Visibility Wind Dir Wind Speed Gust Speed Precip Events Conditions
12:15 AM 37.4 °F 32.8 °F 24.8 °F 60% 29.92 in 10.0 mi SW 5.8 mph - N/A   Clear
12:35 AM 37.4 °F 33.8 °F 24.8 °F 60% 29.91 in 10.0 mi SW 4.6 mph - N/A   Clear
12:55 AM 37.4 °F 32.8 °F 24.8 °F 60% 29.90 in 10.0 mi SSW 5.8 mph - N/A   Clear
1:15 AM 37.4 °F 32.1 °F 23.0 °F 56% 29.89 in 10.0 mi SSW 6.9 mph - N/A   Clear
1:35 AM 37.4 °F 32.8 °F 23.0 °F 56% 29.89 in 10.0 mi SW 5.8 mph - N/A   Clear
1:55 AM 37.4 °F 33.8 °F 23.0 °F 56% 29.89 in 10.0 mi SSW 4.6 mph - N/A   Clear
2:15 AM 37.4 °F 33.8 °F 23.0 °F 56% 29.89 in 10.0 mi South 4.6 mph - N/A   Clear
2:35 AM 33.8 °F 28.6 °F 21.2 °F 60% 29.88 in 10.0 mi South 5.8 mph - N/A   Clear
2:55 AM 33.8 °F 30.8 °F 21.2 °F 60% 29.87 in 10.0 mi South 3.5 mph - N/A   Clear
3:15 AM 33.8 °F 30.8 °F 21.2 °F 60% 29.87 in 10.0 mi SW 3.5 mph - N/A   Clear
3:35 AM 35.6 °F 31.7 °F 21.2 °F 56% 29.87 in 10.0 mi SSW 4.6 mph - N/A   Clear
3:55 AM 37.4 °F 32.8 °F 21.2 °F 52% 29.87 in 10.0 mi SW 5.8 mph - N/A   Clear
4:15 AM 37.4 °F 32.8 °F 21.2 °F 52% 29.87 in 10.0 mi SW 5.8 mph - N/A   Scattered Clouds
4:35 AM 37.4 °F 32.1 °F 21.2 °F 52% 29.87 in 10.0 mi SW 6.9 mph - N/A   Partly Cloudy
4:55 AM 37.4 °F 32.1 °F 21.2 °F 52% 29.86 in 10.0 mi SW 6.9 mph - N/A   Clear
5:15 AM 37.4 °F 32.1 °F 21.2 °F 52% 29.86 in 10.0 mi SSW 6.9 mph - N/A   Clear
5:35 AM 37.4 °F 32.1 °F 21.2 °F 52% 29.86 in 10.0 mi SW 6.9 mph - N/A   Clear
5:55 AM 37.4 °F 32.1 °F 21.2 °F 52% 29.86 in 10.0 mi SW 6.9 mph - N/A   Clear
6:15 AM 39.2 °F 34.2 °F 21.2 °F 49% 29.86 in 10.0 mi WSW 6.9 mph - N/A   Clear
6:35 AM 37.4 °F 30.8 °F 21.2 °F 52% 29.87 in 10.0 mi WSW 9.2 mph - N/A   Clear
6:55 AM 39.2 °F 32.5 °F 19.4 °F 45% 29.88 in 10.0 mi WSW 10.4 mph - N/A   Clear
7:15 AM 39.2 °F 33.0 °F 21.2 °F 49% 29.88 in 10.0 mi WSW 9.2 mph - N/A   Mostly Cloudy
7:35 AM 39.2 °F 33.0 °F 19.4 °F 45% 29.89 in 10.0 mi WSW 9.2 mph - N/A   Mostly Cloudy
7:55 AM 39.2 °F 35.9 °F 21.2 °F 49% 29.91 in 10.0 mi WNW 4.6 mph - N/A   Scattered Clouds
8:15 AM 42.8 °F 38.6 °F 21.2 °F 42% 29.92 in 10.0 mi West 6.9 mph - N/A   Clear
8:35 AM 42.8 °F 38.6 °F 21.2 °F 42% 29.95 in 10.0 mi West 6.9 mph - N/A   Clear
8:55 AM 42.8 °F 37.5 °F 23.0 °F 46% 29.97 in 10.0 mi WNW 9.2 mph - N/A   Clear
9:15 AM 44.6 °F 39.7 °F 23.0 °F 43% 29.98 in 10.0 mi NW 9.2 mph - N/A   Scattered Clouds
9:35 AM 44.6 °F 39.2 °F 24.8 °F 46% 29.99 in 10.0 mi NNW 10.4 mph - N/A   Partly Cloudy
9:55 AM 44.6 °F 39.7 °F 26.6 °F 49% 30.00 in 10.0 mi NNW 9.2 mph - N/A   Scattered Clouds
10:15 AM 44.6 °F 39.7 °F 28.4 °F 53% 30.02 in 10.0 mi NNW 9.2 mph 16.1 mph N/A   Mostly Cloudy
10:35 AM 44.6 °F 39.7 °F 28.4 °F 53% 30.03 in 10.0 mi NW 9.2 mph 16.1 mph N/A   Mostly Cloudy
10:55 AM 42.8 °F 37.0 °F 30.2 °F 61% 30.04 in 10.0 mi NNW 10.4 mph - N/A   Overcast
11:15 AM 42.8 °F 38.0 °F 30.2 °F 61% 30.04 in 10.0 mi NW 8.1 mph - N/A   Overcast
11:35 AM 44.6 °F 39.7 °F 30.2 °F 57% 30.04 in 10.0 mi NNW 9.2 mph 16.1 mph N/A   Mostly Cloudy
11:55 AM 44.6 °F 39.7 °F 30.2 °F 57% 30.03 in 10.0 mi NW 9.2 mph - N/A   Scattered Clouds
12:15 PM 44.6 °F 39.2 °F 30.2 °F 57% 30.02 in 10.0 mi NNW 10.4 mph - N/A   Scattered Clouds
12:35 PM 46.4 °F 41.1 °F 30.2 °F 53% 30.02 in 10.0 mi NNW 11.5 mph - N/A   Partly Cloudy
12:55 PM 46.4 °F 40.4 °F 30.2 °F 53% 30.03 in 10.0 mi NW 13.8 mph 19.6 mph N/A   Partly Cloudy
1:15 PM 46.4 °F 40.4 °F 30.2 °F 53% 30.03 in 10.0 mi NNW 13.8 mph 17.3 mph N/A   Partly Cloudy
1:35 PM 46.4 °F 40.1 °F 30.2 °F 53% 30.04 in 10.0 mi NNW 15.0 mph 18.4 mph N/A   Mostly Cloudy
1:55 PM 46.4 °F 41.1 °F 28.4 °F 50% 30.05 in 10.0 mi NNW 11.5 mph 20.7 mph N/A   Mostly Cloudy
2:15 PM 48.2 °F - 28.4 °F 46% 30.06 in 10.0 mi NNW 15.0 mph 20.7 mph N/A   Mostly Cloudy
2:35 PM 48.2 °F - 23.0 °F 37% 30.07 in 10.0 mi NNW 11.5 mph 24.2 mph N/A   Partly Cloudy
2:55 PM 48.2 °F - 21.2 °F 34% 30.08 in 10.0 mi NNW 15.0 mph 23.0 mph N/A   Clear
3:15 PM 48.2 °F - 24.8 °F 40% 30.07 in 10.0 mi North 15.0 mph - N/A   Clear
3:35 PM 48.2 °F - 24.8 °F 40% 30.09 in 10.0 mi NNW 13.8 mph - N/A   Clear
3:55 PM 48.2 °F - 23.0 °F 37% 30.10 in 10.0 mi North 17.3 mph 20.7 mph N/A   Clear
4:15 PM 46.4 °F 40.7 °F 19.4 °F 34% 30.11 in 10.0 mi NW 12.7 mph 20.7 mph N/A   Clear
4:35 PM 44.6 °F 38.8 °F 17.6 °F 34% 30.12 in 10.0 mi NNW 11.5 mph 21.9 mph N/A   Clear
4:55 PM 44.6 °F 40.2 °F 17.6 °F 34% 30.13 in 10.0 mi NNW 8.1 mph 17.3 mph N/A   Clear
5:15 PM 42.8 °F 37.0 °F 17.6 °F 36% 30.14 in 10.0 mi NNW 10.4 mph 19.6 mph N/A   Clear
5:35 PM 42.8 °F 37.5 °F 17.6 °F 36% 30.15 in 10.0 mi NW 9.2 mph 19.6 mph N/A   Clear
5:55 PM 41.0 °F 35.8 °F 19.4 °F 42% 30.16 in 10.0 mi NW 8.1 mph - N/A   Clear
6:15 PM 39.2 °F 34.2 °F 17.6 °F 42% 30.16 in 10.0 mi NW 6.9 mph - N/A   Clear
6:35 PM 37.4 °F 33.8 °F 17.6 °F 45% 30.17 in 10.0 mi WNW 4.6 mph - N/A   Clear
6:55 PM 35.6 °F 30.7 °F 17.6 °F 48% 30.18 in 10.0 mi WNW 5.8 mph - N/A   Clear
7:15 PM 35.6 °F 30.7 °F 15.8 °F 44% 30.18 in 10.0 mi WNW 5.8 mph - N/A   Clear
7:35 PM 35.6 °F 30.7 °F 15.8 °F 44% 30.19 in 10.0 mi WNW 5.8 mph - N/A   Clear
7:55 PM 35.6 °F 30.7 °F 15.8 °F 44% 30.20 in 10.0 mi NW 5.8 mph - N/A   Clear
8:15 PM 37.4 °F 32.8 °F 14.0 °F 38% 30.20 in 10.0 mi NW 5.8 mph - N/A   Clear
8:35 PM 35.6 °F 29.9 °F 14.0 °F 41% 30.20 in 10.0 mi NW 6.9 mph - N/A   Clear
8:55 PM 33.8 °F 29.6 °F 12.2 °F 41% 30.20 in 10.0 mi WNW 4.6 mph - N/A   Clear
9:15 PM 33.8 °F 29.6 °F 14.0 °F 44% 30.20 in 10.0 mi WNW 4.6 mph - N/A   Clear
9:35 PM 33.8 °F 29.6 °F 12.2 °F 41% 30.20 in 10.0 mi WNW 4.6 mph - N/A   Clear
9:55 PM 32.0 °F 28.7 °F 12.2 °F 44% 30.20 in 10.0 mi WNW 3.5 mph - N/A   Clear
10:15 PM 30.2 °F 24.3 °F 14.0 °F 51% 30.20 in 10.0 mi WNW 5.8 mph - N/A   Clear
10:35 PM 30.2 °F 25.4 °F 12.2 °F 47% 30.20 in 10.0 mi WNW 4.6 mph - N/A   Clear
10:55 PM 30.2 °F 26.7 °F 12.2 °F 47% 30.20 in 10.0 mi WNW 3.5 mph - N/A   Clear
11:15 PM 30.2 °F 25.4 °F 12.2 °F 47% 30.20 in 10.0 mi WNW 4.6 mph - N/A   Clear
11:35 PM 30.2 °F 25.4 °F 12.2 °F 47% 30.20 in 10.0 mi WNW 4.6 mph - N/A   Clear
11:55 PM 30.2 °F 25.4 °F 12.2 °F 47% 30.19 in 10.0 mi NW 4.6 mph - N/A   Clear